Location: Barrio de Buenos Aires
(28.4500°N, 16.2667°W)
Time: 15:39:08
(UTC+00:00)

Cosmos 1076 Rocket - Pass Details

Date: 24 January 2020
Orbit: 590 x 612 km, 82.5° (Epoch: 24 February)

Event Time Altitude Azimuth Distance (km) Brightness Sun altitude
Rises 20:38:53 0° 194° (SSW) 2,822 7.2 -26.5°
Reaches altitude 10° 20:41:06 10° 198° (SSW) 1,927 6.4 -27.0°
Enters shadow 20:44:36 49° 239° (WSW) 772 4.3 -27.8°
